Weather History for Quakertown, PA

Change the Weather History Date:

Wednesday, March 19, 2014

  Actual Average (KABE) Record (KABE)
Temperature  
Mean Temperature 34 °F 40 °F  
Max Temperature 41 °F 51 °F 77 °F (2012)
Min Temperature 28 °F 30 °F -1 °F (1967)
Degree Days  
Heating Degree Days 30 25  
Month to date heating degree days 532  
Since 1 July heating degree days 4841  
Cooling Degree Days 0 0  
Month to date cooling degree days 0  
Year to date cooling degree days 0  
Moisture  
Dew Point 32 °F    
Average Humidity 85    
Maximum Humidity 100    
Minimum Humidity 60    
Precipitation  
Precipitation 0.46 in 0.11 in 1.59 in (1975)
Month to date precipitation 1.97  
Year to date precipitation 7.70  
Snow  
Snow 0.00 in 0.20 in 5.70 in (1956)
Month to date snowfall 3.7  
Since 1 July snowfall 30.7  
Snow Depth -    
Sea Level Pressure  
Sea Level Pressure 30.11 in    
Wind  
Wind Speed 4 mph (ENE)    
Max Wind Speed 14 mph    
Max Gust Speed 18 mph    
Visibility 7 miles    
Events      
T = Trace of Precipitation, MM = Missing Value Source: NWS Daily Summary

Daily Weather History Graph

Daily Weather History Graph

Search for Another Location

Airport:

Trip Planner

Search our weather history database for the weather conditions in past years. The results will help you decide how hot, cold, wet, or windy it might be!

Date:

Astronomy

Mar. 19, 2014 Rise Set
Actual Time 7:06 AM EDT 7:12 PM EDT
Civil Twilight 6:39 AM EDT 7:39 PM EDT
Nautical Twilight 6:07 AM EDT 8:11 PM EDT
Astronomical Twilight 5:35 AM EDT 8:43 PM EDT
Moon 10:29 PM EDT (3/19) 8:30 AM EDT (3/19)
Length of Visible Light 13h 00m
Length of Day
12h 05m
Waning Gibbous, 91% of the Moon is Illuminated
Mar 19
Waning Gibbous
Mar 23
Last Quarter
Mar 30
New
Apr 7
First Quarter
Apr 15
Full

Hourly Weather History & Observations

Time (EDT) Temp. Windchill Dew Point Humidity Pressure Visibility Wind Dir Wind Speed Gust Speed Precip Events Conditions
12:15 AM 30.2 °F - 17.6 °F 60% 30.26 in 10.0 mi Calm Calm - N/A   Clear
12:35 AM 28.4 °F - 19.4 °F 69% 30.25 in 10.0 mi Calm Calm - N/A   Partly Cloudy
12:55 AM 30.2 °F 26.7 °F 21.2 °F 69% 30.25 in 10.0 mi NE 3.5 mph - N/A   Mostly Cloudy
1:15 AM 32.0 °F - 21.2 °F 64% 30.24 in 10.0 mi Calm Calm - N/A   Overcast
1:35 AM 32.0 °F - 21.2 °F 64% 30.25 in 10.0 mi Calm Calm - N/A   Overcast
1:55 AM 32.0 °F - 23.0 °F 69% 30.25 in 10.0 mi Calm Calm - N/A   Overcast
2:15 AM 32.0 °F - 23.0 °F 69% 30.25 in 10.0 mi Calm Calm - N/A   Overcast
2:35 AM 32.0 °F - 24.8 °F 75% 30.25 in 10.0 mi Calm Calm - N/A   Overcast
2:55 AM 32.0 °F - 24.8 °F 75% 30.26 in 10.0 mi Calm Calm - N/A   Overcast
3:15 AM 32.0 °F - 26.6 °F 80% 30.25 in 10.0 mi Calm Calm - N/A   Overcast
3:35 AM 32.0 °F 27.5 °F 26.6 °F 80% 30.24 in 10.0 mi East 4.6 mph - N/A   Overcast
3:55 AM 32.0 °F 27.5 °F 26.6 °F 80% 30.24 in 10.0 mi ENE 4.6 mph - N/A   Overcast
4:15 AM 32.0 °F 26.4 °F 26.6 °F 80% 30.23 in 10.0 mi ENE 5.8 mph - N/A   Overcast
4:35 AM 32.0 °F 27.5 °F 26.6 °F 80% 30.24 in 10.0 mi ENE 4.6 mph - N/A   Mostly Cloudy
4:55 AM 32.0 °F 28.7 °F 26.6 °F 80% 30.26 in 10.0 mi ENE 3.5 mph - N/A   Overcast
5:15 AM 32.0 °F 27.5 °F 26.6 °F 80% 30.26 in 10.0 mi ENE 4.6 mph - N/A   Overcast
5:35 AM 32.0 °F 28.7 °F 26.6 °F 80% 30.26 in 10.0 mi ENE 3.5 mph - N/A   Overcast
5:55 AM 32.0 °F 27.5 °F 26.6 °F 80% 30.25 in 10.0 mi ENE 4.6 mph - N/A   Overcast
6:15 AM 32.0 °F 25.6 °F 26.6 °F 80% 30.25 in 10.0 mi East 6.9 mph - N/A   Overcast
6:35 AM 32.0 °F 25.6 °F 26.6 °F 80% 30.25 in 10.0 mi East 6.9 mph - N/A   Overcast
6:55 AM 32.0 °F 27.5 °F 26.6 °F 80% 30.25 in 10.0 mi East 4.6 mph - N/A   Overcast
7:15 AM 32.0 °F 26.4 °F 26.6 °F 80% 30.25 in 10.0 mi East 5.8 mph - N/A   Overcast
7:35 AM 32.0 °F 25.6 °F 26.6 °F 80% 30.24 in 10.0 mi East 6.9 mph - N/A   Overcast
7:55 AM 32.0 °F 28.7 °F 26.6 °F 80% 30.25 in 10.0 mi ENE 3.5 mph - N/A   Overcast
8:15 AM 32.0 °F 24.8 °F 26.6 °F 80% 30.24 in 10.0 mi East 8.1 mph - N/A   Overcast
8:35 AM 32.0 °F 27.5 °F 28.4 °F 87% 30.24 in 10.0 mi East 4.6 mph - N/A   Overcast
8:55 AM 32.0 °F 26.4 °F 28.4 °F 87% 30.24 in 10.0 mi ENE 5.8 mph - N/A   Overcast
9:15 AM 32.0 °F 26.4 °F 28.4 °F 87% 30.25 in 10.0 mi ENE 5.8 mph - N/A   Overcast
9:35 AM 32.0 °F 26.4 °F 28.4 °F 87% 30.24 in 10.0 mi East 5.8 mph - N/A   Overcast
9:55 AM 33.8 °F 29.6 °F 28.4 °F 81% 30.24 in 10.0 mi East 4.6 mph - N/A   Overcast
10:15 AM 33.8 °F 28.6 °F 28.4 °F 81% 30.24 in 10.0 mi East 5.8 mph - N/A   Overcast
10:35 AM 35.6 °F 31.7 °F 28.4 °F 75% 30.23 in 10.0 mi East 4.6 mph - N/A   Overcast
10:55 AM 35.6 °F 29.9 °F 30.2 °F 81% 30.22 in 9.0 mi East 6.9 mph - N/A   Overcast
11:15 AM 35.6 °F 29.2 °F 30.2 °F 81% 30.21 in 10.0 mi East 8.1 mph - N/A   Overcast
11:35 AM 37.4 °F 30.8 °F 32.0 °F 81% 30.19 in 10.0 mi East 9.2 mph - N/A   Overcast
11:55 AM 37.4 °F 30.3 °F 32.0 °F 81% 30.18 in 10.0 mi East 10.4 mph - N/A   Overcast
12:15 PM 39.2 °F 33.0 °F 32.0 °F 75% 30.17 in 10.0 mi East 9.2 mph - N/A   Overcast
12:35 PM 39.2 °F 32.0 °F 32.0 °F 75% 30.16 in 10.0 mi East 11.5 mph 18.4 mph N/A   Overcast
12:55 PM 39.2 °F 31.2 °F 32.0 °F 75% 30.14 in 10.0 mi ESE 13.8 mph 18.4 mph N/A   Overcast
1:15 PM 41.0 °F 36.4 °F 32.0 °F 70% 30.13 in 10.0 mi East 6.9 mph - N/A   Overcast
1:35 PM 41.0 °F 35.8 °F 33.8 °F 76% 30.13 in 10.0 mi ESE 8.1 mph - N/A   Overcast
1:55 PM 41.0 °F 35.2 °F 35.6 °F 81% 30.11 in 5.0 mi ESE 9.2 mph - N/A   Overcast
2:15 PM 41.0 °F 36.4 °F 37.4 °F 87% 30.10 in 3.0 mi SE 6.9 mph - N/A   Overcast
2:35 PM 41.0 °F 36.4 °F 37.4 °F 87% 30.09 in 5.0 mi East 6.9 mph - N/A   Overcast
2:55 PM 41.0 °F 36.4 °F 37.4 °F 87% 30.07 in 3.0 mi East 6.9 mph - N/A   Overcast
3:15 PM 41.0 °F 37.1 °F 39.2 °F 93% 30.06 in 1.8 mi East 5.8 mph - N/A   Overcast
3:35 PM 41.0 °F 37.1 °F 39.2 °F 93% 30.06 in 1.8 mi East 5.8 mph - 0.01 in   Overcast
3:55 PM 41.0 °F 39.0 °F 39.2 °F 93% 30.06 in 1.8 mi East 3.5 mph - 0.03 in   Overcast
4:15 PM 41.0 °F 38.0 °F 39.2 °F 93% 30.05 in 2.0 mi East 4.6 mph - 0.01 in   Overcast
4:35 PM 41.0 °F 37.1 °F 39.2 °F 93% 30.04 in 1.2 mi East 5.8 mph - 0.04 in   Overcast
4:55 PM 41.0 °F 35.8 °F 39.2 °F 93% 30.02 in 2.5 mi East 8.1 mph - 0.04 in   Overcast
5:15 PM 39.2 °F 33.6 °F 39.2 °F 100% 30.00 in 3.0 mi East 8.1 mph - N/A   Overcast
5:35 PM 39.2 °F 33.6 °F 39.2 °F 100% 29.98 in 1.2 mi East 8.1 mph - 0.02 in   Overcast
5:55 PM 39.2 °F 34.2 °F 39.2 °F 100% 29.98 in 1.8 mi East 6.9 mph - 0.03 in   Overcast
6:15 PM 39.2 °F 35.9 °F 37.4 °F 93% 29.98 in 1.2 mi ENE 4.6 mph - 0.03 in   Overcast
6:35 PM 39.2 °F 34.2 °F 37.4 °F 93% 29.96 in 2.0 mi ENE 6.9 mph - 0.04 in   Overcast
6:55 PM 37.4 °F 32.1 °F 37.4 °F 100% 29.93 in 4.0 mi East 6.9 mph - 0.04 in   Overcast
7:15 PM 37.4 °F 31.4 °F 37.4 °F 100% 29.91 in 5.0 mi NE 8.1 mph - 0.01 in   Overcast
7:35 PM 37.4 °F 32.1 °F 37.4 °F 100% 29.94 in 3.0 mi WNW 6.9 mph - 0.06 in   Overcast
7:55 PM 37.4 °F 34.9 °F 37.4 °F 100% 29.91 in 4.0 mi ENE 3.5 mph - 0.15 in   Overcast
8:15 PM 37.4 °F 32.8 °F 37.4 °F 100% 29.95 in 3.0 mi West 5.8 mph - 0.05 in   Overcast
8:35 PM 37.4 °F 32.1 °F 37.4 °F 100% 29.93 in 4.0 mi WNW 6.9 mph - 0.09 in   Overcast
8:55 PM 37.4 °F 32.1 °F 35.6 °F 93% 29.90 in 5.0 mi East 6.9 mph - 0.16 in   Overcast
9:15 PM 37.4 °F 34.9 °F 37.4 °F 100% 29.90 in 7.0 mi ENE 3.5 mph - 0.01 in   Overcast
9:35 PM 37.4 °F 34.9 °F 37.4 °F 100% 29.88 in 9.0 mi ENE 3.5 mph - 0.01 in   Overcast
9:55 PM 37.4 °F 34.9 °F 37.4 °F 100% 29.87 in 5.0 mi NNE 3.5 mph - 0.01 in   Overcast
10:15 PM 37.4 °F - 37.4 °F 100% 29.86 in 10.0 mi Calm Calm - N/A   Overcast
10:35 PM 37.4 °F 34.9 °F 37.4 °F 100% 29.86 in 10.0 mi NNW 3.5 mph - N/A   Overcast
10:55 PM 37.4 °F 34.9 °F 37.4 °F 100% 29.86 in 3.0 mi WNW 3.5 mph - N/A   Overcast
11:15 PM 37.4 °F - 37.4 °F 100% 29.84 in 2.0 mi Calm Calm - N/A   Overcast
11:35 PM 37.4 °F - 37.4 °F 100% 29.83 in 2.0 mi Calm Calm - N/A   Overcast
11:55 PM 37.4 °F - 37.4 °F 100% 29.84 in 2.0 mi Calm Calm - N/A   Overcast